When you browse on this site, cookies collect data to enhance your experience and personalize the content and advertising you see.
Visit our Privacy Policy to learn more. By continuing to use the site, you agree to this use of cookies and data.
  • In Hungary
  • List of Countries
  • For 7 days
  • Water Temperature
  • Weather Map
  • News
  • Weather Widgets
  • user-avatar
    Login

    Hourly Weather Golubie

    Today, 6 December, Friday

    Time Temperature Precipitation Wind Pressure Humidity
    00:00 -4°C° 0 mm 5 mps 749 mmHg 74%
    01:00 -4°C° 0 mm 5 mps 749 mmHg 75%
    02:00 -4°C° 0 mm 5 mps 748 mmHg 77%
    03:00 -4°C° 0 mm 5 mps 748 mmHg 77%
    04:00 -4°C° 0 mm 6 mps 747 mmHg 77%
    05:00 -4°C° 0 mm 6 mps 747 mmHg 76%
    06:00 -4°C° 0 mm 6 mps 746 mmHg 75%
    07:00 -4°C° 0 mm 6 mps 746 mmHg 73%
    08:00 -4°C° 0 mm 7 mps 746 mmHg 71%
    09:00 -3°C° 0 mm 7 mps 745 mmHg 67%
    10:00 -3°C° 0 mm 7 mps 745 mmHg 64%
    11:00 -2°C° 0 mm 8 mps 744 mmHg 60%
    12:00 -1°C° 0 mm 8 mps 745 mmHg 57%
    13:00 -1°C° 0 mm 7 mps 745 mmHg 54%
    14:00 0°C° 0 mm 7 mps 745 mmHg 52%
    15:00 0°C° 0 mm 7 mps 744 mmHg 53%
    16:00 -1°C° 0 mm 6 mps 744 mmHg 55%
    17:00 -1°C° 0 mm 6 mps 744 mmHg 57%
    18:00 -1°C° 0 mm 6 mps 744 mmHg 58%
    19:00 -1°C° 0 mm 6 mps 744 mmHg 59%
    20:00 0°C° 0 mm 5 mps 744 mmHg 59%
    21:00 0°C° 0 mm 5 mps 744 mmHg 60%
    22:00 0°C° 0 mm 5 mps 743 mmHg 61%
    23:00 0°C° 0 mm 5 mps 743 mmHg 62%

    Tomorrow, 7 December, Saturday

    Time Temperature Precipitation Wind Pressure Humidity
    00:00 0°C° 0.1 mm 5 mps 743 mmHg 63%
    01:00 -1°C° 0.1 mm 5 mps 743 mmHg 64%
    02:00 -1°C° 0.1 mm 5 mps 742 mmHg 64%
    03:00 -2°C° 0 mm 6 mps 742 mmHg 64%
    04:00 -2°C° 0 mm 6 mps 741 mmHg 64%
    05:00 -2°C° 0 mm 6 mps 740 mmHg 64%
    06:00 -2°C° 0 mm 6 mps 740 mmHg 64%
    07:00 -2°C° 0 mm 6 mps 740 mmHg 65%
    08:00 -2°C° 0 mm 6 mps 740 mmHg 65%
    09:00 -1°C° 0 mm 6 mps 739 mmHg 67%
    10:00 -1°C° 0 mm 6 mps 739 mmHg 69%
    11:00 0°C° 0 mm 7 mps 739 mmHg 71%
    12:00 0°C° 0.2 mm 7 mps 739 mmHg 77%
    13:00 +1°C° 0.2 mm 6 mps 738 mmHg 84%
    14:00 +1°C° 0.2 mm 6 mps 738 mmHg 90%
    15:00 +2°C° 0.4 mm 6 mps 738 mmHg 91%
    16:00 +2°C° 0.4 mm 6 mps 737 mmHg 92%
    17:00 +3°C° 0.4 mm 6 mps 737 mmHg 93%
    18:00 +3°C° 0.5 mm 6 mps 737 mmHg 93%
    19:00 +3°C° 0.5 mm 6 mps 738 mmHg 93%
    20:00 +3°C° 0.5 mm 5 mps 738 mmHg 93%
    21:00 +3°C° 0.1 mm 5 mps 738 mmHg 91%
    22:00 +3°C° 0.1 mm 5 mps 738 mmHg 90%
    23:00 +3°C° 0.1 mm 5 mps 738 mmHg 88%

    Day after tomorrow, 8 December, Sunday

    Time Temperature Precipitation Wind Pressure Humidity
    00:00 +2°C° 0 mm 5 mps 739 mmHg 85%
    01:00 +2°C° 0 mm 6 mps 739 mmHg 82%
    02:00 +2°C° 0 mm 6 mps 739 mmHg 79%
    03:00 +1°C° 0 mm 6 mps 739 mmHg 79%
    04:00 +1°C° 0 mm 6 mps 740 mmHg 80%
    05:00 -1°C° 0 mm 6 mps 740 mmHg 80%
    06:00 -1°C° 0 mm 6 mps 741 mmHg 83%
    07:00 0°C° 0 mm 5 mps 741 mmHg 86%
    08:00 0°C° 0 mm 5 mps 742 mmHg 89%
    09:00 0°C° 0 mm 5 mps 742 mmHg 89%
    10:00 0°C° 0 mm 5 mps 742 mmHg 89%
    11:00 +1°C° 0 mm 5 mps 742 mmHg 89%
    12:00 +1°C° 0 mm 5 mps 741 mmHg 88%
    13:00 +2°C° 0 mm 5 mps 741 mmHg 87%
    14:00 +2°C° 0 mm 5 mps 741 mmHg 86%
    15:00 +3°C° 0 mm 5 mps 740 mmHg 86%
    16:00 +3°C° 0 mm 6 mps 740 mmHg 86%
    17:00 +3°C° 0 mm 6 mps 739 mmHg 86%
    18:00 +3°C° 0 mm 6 mps 739 mmHg 84%
    19:00 +3°C° 0 mm 7 mps 738 mmHg 82%
    20:00 +3°C° 0 mm 7 mps 738 mmHg 80%
    21:00 +3°C° 0.1 mm 7 mps 737 mmHg 81%
    22:00 +3°C° 0.1 mm 7 mps 737 mmHg 82%
    23:00 +2°C° 0.1 mm 8 mps 736 mmHg 83%

    9 December, Monday

    Time Temperature Precipitation Wind Pressure Humidity
    00:00 +3°C° 0.5 mm 7 mps 736 mmHg 85%
    01:00 +4°C° 0.5 mm 7 mps 735 mmHg 88%
    02:00 +4°C° 0.5 mm 6 mps 735 mmHg 90%
    03:00 +4°C° 0.1 mm 6 mps 735 mmHg 90%
    04:00 +4°C° 0.1 mm 6 mps 735 mmHg 91%
    05:00 +5°C° 0.1 mm 6 mps 734 mmHg 91%
    06:00 +5°C° 0.1 mm 6 mps 734 mmHg 88%
    07:00 +4°C° 0.1 mm 6 mps 735 mmHg 85%
    08:00 +5°C° 0.1 mm 5 mps 735 mmHg 82%
    09:00 +5°C° 0 mm 5 mps 735 mmHg 80%
    10:00 +5°C° 0 mm 5 mps 735 mmHg 79%
    11:00 +5°C° 0 mm 5 mps 736 mmHg 77%
    12:00 +5°C° 0 mm 5 mps 736 mmHg 77%
    13:00 +5°C° 0 mm 4 mps 736 mmHg 76%
    14:00 +6°C° 0 mm 4 mps 736 mmHg 75%
    15:00 +5°C° 0 mm 4 mps 736 mmHg 77%
    16:00 +5°C° 0 mm 4 mps 736 mmHg 79%
    17:00 +4°C° 0 mm 3 mps 736 mmHg 81%
    18:00 +4°C° 0 mm 3 mps 736 mmHg 83%
    19:00 +3°C° 0 mm 3 mps 736 mmHg 85%
    20:00 +3°C° 0 mm 2 mps 736 mmHg 87%
    21:00 +2°C° 0 mm 3 mps 736 mmHg 88%
    22:00 +2°C° 0 mm 3 mps 736 mmHg 89%
    23:00 +2°C° 0 mm 3 mps 736 mmHg 89%

    10 December, Tuesday

    Time Temperature Precipitation Wind Pressure Humidity
    00:00 +2°C° 0 mm 3 mps 736 mmHg 89%
    01:00 +2°C° 0 mm 3 mps 736 mmHg 89%
    02:00 +2°C° 0 mm 3 mps 736 mmHg 88%
    03:00 +2°C° 0 mm 3 mps 736 mmHg 90%
    04:00 +2°C° 0 mm 2 mps 736 mmHg 92%
    05:00 +2°C° 0 mm 2 mps 736 mmHg 94%
    06:00 +2°C° 0 mm 2 mps 736 mmHg 93%
    07:00 +2°C° 0 mm 2 mps 736 mmHg 92%
    08:00 +2°C° 0 mm 2 mps 736 mmHg 91%
    09:00 +3°C° 0 mm 2 mps 737 mmHg 91%
    10:00 +3°C° 0 mm 2 mps 737 mmHg 91%
    11:00 +2°C° 0 mm 3 mps 737 mmHg 91%
    12:00 +3°C° 0 mm 3 mps 737 mmHg 88%
    13:00 +3°C° 0 mm 3 mps 738 mmHg 85%
    14:00 +3°C° 0 mm 3 mps 738 mmHg 82%
    15:00 +3°C° 0.2 mm 4 mps 738 mmHg 85%
    16:00 +1°C° 0.2 mm 5 mps 739 mmHg 89%
    17:00 +1°C° 0.2 mm 5 mps 740 mmHg 92%
    18:00 -1°C° 0.2 mm 6 mps 741 mmHg 85%
    19:00 -1°C° 0.2 mm 6 mps 742 mmHg 78%
    20:00 -2°C° 0.2 mm 6 mps 743 mmHg 72%
    21:00 -2°C° 0 mm 6 mps 744 mmHg 72%
    22:00 -2°C° 0 mm 5 mps 745 mmHg 72%
    23:00 -2°C° 0 mm 4 mps 746 mmHg 72%

    11 December, Wednesday

    Time Temperature Precipitation Wind Pressure Humidity
    00:00 -2°C° 0 mm 4 mps 746 mmHg 71%
    01:00 -2°C° 0 mm 4 mps 746 mmHg 71%
    02:00 -2°C° 0 mm 4 mps 747 mmHg 71%
    03:00 -2°C° 0 mm 4 mps 747 mmHg 71%
    04:00 -2°C° 0 mm 3 mps 747 mmHg 72%
    05:00 -2°C° 0 mm 3 mps 747 mmHg 72%
    06:00 -2°C° 0 mm 3 mps 747 mmHg 71%
    07:00 -2°C° 0 mm 3 mps 747 mmHg 71%
    08:00 -2°C° 0 mm 3 mps 746 mmHg 70%
    09:00 -3°C° 0 mm 4 mps 746 mmHg 65%
    10:00 -2°C° 0 mm 5 mps 746 mmHg 61%
    11:00 -3°C° 0 mm 6 mps 746 mmHg 56%
    12:00 -3°C° 0 mm 6 mps 745 mmHg 55%
    13:00 -3°C° 0 mm 6 mps 744 mmHg 53%
    14:00 -2°C° 0 mm 7 mps 744 mmHg 51%
    15:00 -2°C° 0 mm 7 mps 743 mmHg 53%
    16:00 -2°C° 0 mm 7 mps 743 mmHg 54%
    17:00 -2°C° 0 mm 7 mps 742 mmHg 56%
    18:00 -2°C° 0.4 mm 7 mps 742 mmHg 66%
    19:00 -3°C° 0.4 mm 7 mps 741 mmHg 76%
    20:00 -3°C° 0.4 mm 7 mps 741 mmHg 86%
    21:00 -2°C° 0.2 mm 6 mps 741 mmHg 88%
    22:00 -2°C° 0.2 mm 6 mps 741 mmHg 91%
    23:00 -1°C° 0.2 mm 5 mps 740 mmHg 93%
    Show more